Wetbulb
73.38 73.26 72.58 71.82 71.26 70.77 69.94 69.92 69.74 69.97 70.34 70.21 69.88 69.29 68.89 68.98 69.02 68.38 68.25 71.16 70.58 70.34 71.27 72.25 72.40 72.40 72.32 72.12 71.43 70.92 71.94 72.18 71.60 71.18 70.61 70.55 70.48 70.57 70.33 69.86 69.22 69.04 68.42
73.83 72.40 72.25 71.25 70.35 69.91 69.44 69.22 69.21 69.66 70.02 69.58 69.80 70.52 69.93 69.86 69.68 69.76 69.85 70.35 70.24 70.52 70.51 71.22 72.16 72.45 72.59 71.88 71.73 70.95 71.51 71.66 71.84 71.39 71.08 70.43 70.23 70.21 70.32 69.55 69.03 68.66 68.85
73.75 73.24 70.78 70.17 69.50 70.32 71.04 70.62 70.36 70.41 69.72 69.56 70.29 70.59 70.84 70.80 70.74 71.29 71.61 71.21 70.02 69.81 70.60 70.68 71.76 72.03 73.36 72.43 71.11 68.89 71.00 71.11 71.48 71.45 71.12 71.03 70.24 69.80 70.13 69.76 69.37 68.43 68.82
72.90 72.20 69.62 69.44 70.02 70.36 70.10 69.51 69.99 69.69 69.49 69.99 70.71 71.18 71.40 71.48 71.65 72.09 71.95 70.27 70.34 71.73 71.26 71.88 72.30 72.28 72.66 72.50 71.49 70.48 70.83 69.26 71.03 71.16 71.22 70.94 70.42 69.91 69.71 69.80 68.33 68.18 68.25
71.24 71.41 69.51 69.97 71.19 68.72 69.54 69.67 70.14 70.66 69.71 70.97 71.19 71.46 71.77 71.22 71.60 71.63 71.84 71.66 72.72 72.52 72.80 72.03 71.32 71.30 71.99 71.58 72.06 71.34 71.43 70.18 70.65 70.81 70.87 70.68 70.57 70.23 69.63 69.52 68.78 68.49 67.46
70.88 71.16 70.09 71.25 69.92 69.02 69.08 69.66 71.52 70.59 71.65 71.55 71.37 71.17 71.09 71.32 71.53 71.83 71.93 72.00 72.42 72.96 73.45 73.71 73.24 71.50 70.65 70.98 71.26 71.52 70.85 70.83 70.76 70.35 70.50 70.32 70.41 70.42 70.15 69.76 69.03 68.13 67.36
70.85 72.10 69.73 70.87 71.03 69.47 68.07 69.90 70.50 70.64 71.42 72.15 70.49 70.35 70.34 71.51 71.61 71.67 72.18 72.20 72.17 72.46 72.89 72.94 73.66 71.76 71.19 70.21 69.97 70.56 70.48 69.86 70.26 70.36 69.83 69.79 70.10 70.53 70.51 69.90 69.17 68.66 68.50
72.13 72.52 72.26 71.50 71.74 69.19 71.22 71.15 71.91 71.13 71.65 72.22 69.35 69.11 66.68 69.15 70.67 71.44 71.88 71.94 72.38 72.25 72.12 72.75 72.62 72.41 72.31 71.73 72.14 69.52 70.19 69.88 69.93 70.39 69.59 69.47 69.70 70.05 70.37 70.15 69.18 69.09 68.40
72.50 73.42 72.83 72.45 71.70 70.81 71.08 72.18 72.67 72.36 70.23 71.33 71.58 69.10 66.41 64.45 68.78 70.53 71.23 71.31 71.91 71.44 71.38 71.73 72.08 72.07 72.24 71.72 70.46 70.21 69.49 69.86 69.89 69.77 69.76 69.35 69.75 70.00 70.21 70.09 69.68 69.19 68.69
71.88 72.75 74.23 72.01 72.60 71.52 73.89 73.59 73.38 73.44 72.19 70.39 70.16 69.79 71.82 70.40 65.83 64.72 68.60 69.97 71.08 70.78 71.30 70.44 70.76 71.18 71.31 71.18 71.22 69.46 68.50 68.51 69.36 69.38 69.45 69.57 69.54 69.61 70.04 70.15 69.87 69.37 68.70
73.48 72.40 74.50 74.39 74.59 72.84 74.64 74.85 74.12 73.46 72.67 71.00 69.75 69.72 70.45 69.63 69.90 66.88 63.96 65.62 68.54 69.55 70.04 70.54 70.07 69.74 70.67 70.56 70.54 69.78 66.71 66.46 67.18 67.98 68.36 68.86 69.04 69.95 70.08 70.16 69.93 69.46 68.87
74.09 74.69 74.22 75.12 75.01 74.99 74.65 74.57 75.00 73.63 72.38 72.00 71.56 71.47 69.88 68.57 67.59 67.19 64.56 66.76 66.42 68.14 69.34 69.42 69.25 69.19 69.77 69.92 69.69 66.60 65.77 65.17 64.64 65.32 66.14 67.14 68.14 69.36 69.84 69.99 69.62 69.36 69.05
72.95 75.64 76.15 75.73 74.70 75.62 75.18 75.15 74.27 73.37 72.65 71.97 73.30 71.62 71.51 70.61 70.26 68.79 67.04 66.40 64.71 66.70 67.62 68.69 68.66 69.43 69.86 69.62 70.10 65.81 65.30 64.19 63.44 62.61 63.24 64.31 66.03 67.66 68.58 69.22 69.60 69.50 68.85
71.67 76.04 75.74 76.21 75.23 75.47 75.01 74.92 73.58 72.67 73.52 72.30 73.05 73.38 71.70 70.92 70.36 69.35 68.28 65.52 63.51 64.32 66.23 67.13 68.62 68.82 69.24 69.34 67.24 65.74 68.19 63.35 62.29 61.25 60.93 61.84 63.62 65.19 66.26 67.15 67.53 67.46 66.69
71.38 73.23 74.35 75.24 75.55 74.92 74.42 74.26 72.15 72.52 73.75 73.63 73.61 73.07 71.77 70.96 70.05 69.71 69.59 67.88 65.16 62.11 62.78 66.61 65.19 68.81 69.95 69.30 68.18 68.75 68.85 62.63 62.90 60.72 60.03 60.13 61.34 62.93 63.55 64.15 64.60 64.30 64.11
72.34 72.09 73.91 75.11 74.34 73.95 73.36 74.00 73.18 74.09 73.65 73.32 72.67 73.09 71.95 70.68 71.40 70.82 69.12 68.18 67.62 65.15 61.86 66.16 65.45 68.13 68.79 67.41 66.45 68.32 68.49 63.91 61.86 59.81 59.75 59.56 59.56 60.60 61.33 61.66 61.91 62.35 62.77
71.14 71.18 72.55 72.95 73.14 72.64 73.38 73.88 74.85 73.96 73.23 73.16 72.93 71.42 71.03 71.89 70.53 69.65 68.93 68.59 67.06 66.33 63.15 65.64 68.01 66.53 65.95 65.47 66.04 66.39 67.58 67.90 66.91 59.53 59.64 58.99 57.56 58.24 58.99 59.31 59.90 60.65 61.60
70.58 70.85 71.88 72.22 72.19 72.27 73.52 73.66 73.63 73.52 72.75 71.96 70.88 70.85 69.60 70.18 70.49 70.34 68.55 68.73 67.43 67.56 65.01 64.19 65.37 63.68 64.62 66.63 66.35 65.49 64.87 66.48 67.67 60.26 58.82 57.78 56.59 56.23 56.65 57.04 57.40 57.92 58.51
69.93 70.82 71.49 71.77 71.42 71.93 73.18 73.76 73.60 72.95 72.72 72.17 71.04 70.28 70.13 70.17 69.66 68.87 68.62 67.60 67.10 66.72 66.59 64.73 64.01 63.98 65.99 66.30 65.09 64.02 63.91 65.14 65.33 60.30 57.64 57.42 56.35 56.37 56.41 56.09 57.02 56.13 56.15
69.46 70.48 71.91 71.85 71.74 72.15 72.94 73.28 73.11 72.23 72.37 71.58 71.18 70.53 70.79 69.86 69.22 68.78 68.10 67.60 67.33 66.63 66.07 64.79 64.13 62.61 63.95 65.06 64.70 62.05 61.02 63.17 62.81 64.59 61.45 61.14 58.29 56.55 56.03 55.89 56.41 56.55 54.50
70.08 71.34 71.67 71.58 71.98 72.25 72.27 72.87 72.28 72.07 71.98 70.56 70.38 69.73 70.26 67.74 63.71 65.49 67.22 67.74 68.34 66.11 64.58 63.69 62.46 62.61 62.63 61.73 62.93 62.61 59.69 60.99 62.15 63.20 64.11 64.59 64.52 63.00 59.56 56.92 59.16 57.14 54.94
71.53 72.10 71.71 71.04 71.81 71.34 55.42 57.89 68.14 71.97 70.74 69.77 68.43 68.58 69.24 63.01 62.33 57.86 58.17 57.30 63.03 67.32 65.92 63.78 64.39 62.98 62.42 62.03 64.19 62.32 61.65 59.86 59.17 62.40 62.43 62.41 64.49 63.31 62.73 64.53 56.90 53.61 52.67
73.25 72.89 72.52 71.44 72.18 72.19 53.24 54.13 57.56 71.33 70.49 69.78 68.63 68.43 67.75 66.79 64.31 66.69 55.70 53.66 55.28 55.11 56.91 66.23 64.72 64.36 62.92 63.71 62.30 63.25 61.92 61.17 60.57 61.12 61.86 59.74 61.66 61.24 63.15 60.93 53.17 51.87 51.16
73.07 72.86 72.75 72.37 72.21 70.11 50.89 51.98 55.15 70.73 69.38 68.97 69.23 68.77 68.23 67.51 66.85 66.80 66.47 65.46 65.54 65.47 64.92 65.03 65.70 64.40 64.43 66.20 63.49 63.53 62.46 62.26 62.07 61.50 62.96 58.81 59.84 58.59 59.87 59.67 50.26 50.52 49.01
71.55 72.26 71.84 71.74 71.38 65.76 49.26 50.53 60.81 69.24 68.01 67.89 67.97 68.32 68.12 67.54 54.43 51.06 65.53 63.79 64.90 63.91 53.08 49.81 50.56 50.89 49.75 52.64 58.06 62.12 59.73 58.58 58.39 58.75 60.78 58.80 58.62 57.44 59.36 58.18 55.87 49.68 47.97
69.46 70.51 70.99 71.80 64.87 66.90 46.71 50.27 60.17 66.48 66.71 66.20 67.59 67.66 51.97 61.33 46.90 47.09 65.18 63.63 61.40 62.04 61.06 61.36 61.83 56.08 54.46 56.93 51.00 64.31 59.89 57.48 57.62 57.52 61.82 61.05 60.03 58.28 56.59 59.93 59.12 56.19 54.71
MSLP
1011.62 1011.89 1012.11 1012.27 1012.52 1012.78 1012.98 1013.22 1013.62 1013.65 1013.94 1014.11 1013.87 1013.71 1013.53 1013.39 1013.43 1013.34 1013.18 1013.67 1014.31 1014.54 1014.48 1014.46 1014.50 1014.35 1014.43 1014.68 1014.87 1015.05 1015.47 1015.80 1016.00 1016.19 1016.42 1016.62 1016.82 1017.13 1017.42 1017.68 1017.98 1018.17 1018.33
1011.21 1011.62 1012.20 1012.44 1012.49 1012.64 1012.85 1012.75 1012.89 1013.37 1013.25 1013.26 1013.10 1013.37 1013.35 1013.21 1013.29 1013.25 1012.89 1012.74 1013.63 1014.10 1014.17 1014.05 1014.05 1013.90 1014.01 1014.33 1014.57 1014.78 1015.03 1015.36 1015.56 1015.81 1016.09 1016.33 1016.56 1016.84 1017.14 1017.37 1017.71 1017.99 1018.21
1011.34 1011.86 1011.87 1012.06 1012.02 1012.29 1012.85 1012.75 1012.59 1012.77 1013.28 1013.40 1013.21 1012.84 1013.01 1012.95 1012.82 1012.90 1012.99 1012.64 1012.39 1013.29 1013.60 1013.62 1013.66 1013.59 1013.57 1013.89 1014.23 1014.48 1014.74 1014.87 1015.10 1015.39 1015.67 1015.97 1016.20 1016.54 1016.87 1017.20 1017.42 1017.64 1018.02
1011.18 1011.54 1011.45 1011.43 1011.31 1011.71 1011.91 1012.14 1011.71 1011.66 1012.40 1012.62 1012.60 1012.57 1012.43 1012.46 1012.27 1012.41 1012.46 1012.33 1011.97 1011.94 1012.76 1012.92 1013.10 1013.16 1013.16 1013.34 1013.76 1014.03 1014.31 1014.57 1014.80 1015.01 1015.32 1015.57 1015.84 1016.17 1016.51 1016.78 1017.16 1017.47 1017.73
1010.56 1010.48 1010.48 1010.62 1011.22 1011.37 1011.49 1011.50 1011.28 1011.49 1011.86 1011.95 1011.94 1012.21 1012.09 1012.21 1012.06 1011.70 1011.71 1011.90 1011.96 1011.96 1011.43 1012.10 1012.52 1012.76 1012.75 1012.96 1013.21 1013.45 1013.76 1014.10 1014.31 1014.59 1014.94 1015.23 1015.51 1015.89 1016.19 1016.43 1016.82 1017.22 1017.57
1009.48 1009.69 1009.76 1009.78 1010.64 1010.50 1010.68 1011.27 1011.42 1011.22 1011.08 1011.29 1011.30 1011.50 1011.83 1011.83 1011.49 1011.25 1011.23 1011.25 1011.11 1011.50 1011.56 1011.29 1011.90 1011.68 1012.26 1012.58 1012.77 1012.93 1013.26 1013.56 1013.83 1014.16 1014.50 1014.86 1015.16 1015.52 1015.89 1016.16 1016.45 1016.89 1017.26
1008.74 1008.75 1008.52 1008.98 1009.37 1009.28 1008.58 1008.61 1009.25 1009.97 1010.40 1011.03 1011.40 1011.23 1011.18 1011.37 1011.25 1010.78 1010.68 1010.66 1010.57 1010.73 1010.93 1011.13 1011.46 1010.86 1011.22 1011.86 1012.36 1012.51 1012.77 1013.10 1013.38 1013.71 1014.05 1014.47 1014.79 1015.14 1015.51 1015.83 1016.15 1016.46 1016.79
1007.53 1008.08 1007.69 1007.64 1008.15 1008.78 1008.31 1009.13 1009.37 1009.50 1009.39 1010.37 1010.76 1010.43 1009.92 1009.74 1009.88 1010.18 1010.21 1010.23 1010.42 1010.27 1010.44 1010.66 1010.71 1010.74 1011.08 1010.82 1011.06 1012.01 1012.36 1012.65 1012.93 1013.28 1013.65 1014.08 1014.45 1014.74 1015.09 1015.48 1015.88 1016.15 1016.52
1006.17 1006.51 1006.54 1006.97 1007.38 1008.09 1007.14 1008.32 1008.35 1009.12 1008.70 1009.68 1010.60 1009.86 1009.06 1008.78 1008.22 1008.96 1009.88 1009.80 1010.10 1010.20 1010.04 1010.25 1010.59 1010.63 1010.82 1010.78 1011.13 1011.52 1011.98 1012.34 1012.58 1012.94 1013.26 1013.72 1014.08 1014.40 1014.68 1015.05 1015.49 1015.81 1016.14
1005.13 1005.18 1005.68 1006.42 1006.87 1007.25 1006.66 1006.74 1007.68 1008.31 1008.85 1008.67 1009.67 1009.76 1009.34 1008.71 1008.19 1008.19 1009.01 1009.32 1009.95 1010.35 1010.29 1009.92 1010.19 1010.36 1010.44 1010.55 1010.75 1011.24 1011.57 1012.02 1012.30 1012.54 1012.94 1013.33 1013.58 1014.02 1014.35 1014.70 1015.08 1015.45 1015.81
1004.40 1004.31 1004.81 1005.26 1005.71 1006.12 1005.68 1006.19 1006.94 1007.88 1007.91 1008.54 1008.61 1008.62 1009.15 1008.83 1008.71 1008.38 1007.89 1008.62 1009.08 1009.48 1009.55 1009.91 1009.69 1009.70 1009.99 1010.27 1010.18 1010.52 1011.35 1011.83 1012.07 1012.33 1012.63 1012.93 1013.21 1013.61 1013.99 1014.40 1014.71 1015.14 1015.46
1003.09 1003.57 1003.69 1004.40 1004.74 1005.06 1005.02 1005.81 1006.50 1006.94 1007.80 1008.18 1007.88 1007.90 1007.85 1008.08 1007.86 1008.15 1007.96 1007.60 1007.57 1008.24 1008.90 1009.39 1009.64 1009.50 1009.50 1009.73 1010.23 1010.98 1011.31 1011.65 1011.92 1012.16 1012.36 1012.65 1012.87 1013.15 1013.63 1014.02 1014.42 1014.75 1015.05
1001.74 1002.00 1002.76 1003.35 1003.74 1004.47 1004.91 1005.20 1006.11 1006.61 1007.48 1007.75 1007.47 1007.03 1007.19 1007.26 1007.13 1007.32 1007.84 1007.01 1006.97 1007.59 1008.50 1008.91 1009.08 1009.26 1009.42 1009.62 1009.76 1010.77 1011.19 1011.55 1011.77 1012.04 1012.19 1012.43 1012.59 1012.90 1013.38 1013.74 1014.05 1014.32 1014.69
1001.25 1001.74 1002.04 1002.51 1002.88 1003.29 1004.31 1004.92 1005.65 1006.37 1006.85 1007.24 1006.89 1006.77 1006.68 1006.91 1006.67 1007.10 1007.40 1007.00 1006.84 1007.51 1007.70 1008.72 1008.85 1009.09 1009.19 1009.43 1010.28 1010.68 1010.54 1011.27 1011.57 1011.87 1012.01 1012.22 1012.45 1012.71 1013.11 1013.46 1013.65 1013.99 1014.58
1000.72 1001.17 1001.59 1001.85 1002.08 1002.60 1003.50 1004.19 1004.93 1005.63 1006.00 1006.24 1006.04 1006.61 1006.74 1006.84 1006.96 1006.91 1006.98 1006.86 1006.86 1006.66 1006.36 1007.96 1008.16 1009.32 1009.27 1009.46 1010.00 1010.15 1010.02 1010.84 1011.24 1011.66 1011.81 1011.99 1012.22 1012.46 1012.82 1013.09 1013.44 1013.84 1014.44
1000.40 1000.41 1000.98 1001.18 1001.63 1002.19 1003.03 1003.55 1004.38 1004.87 1004.84 1005.00 1005.45 1005.99 1006.49 1006.55 1006.62 1006.83 1006.92 1006.97 1007.13 1007.21 1006.65 1007.04 1008.29 1008.98 1009.87 1010.09 1010.34 1010.32 1010.18 1010.85 1011.05 1011.43 1011.63 1011.75 1011.99 1012.21 1012.50 1012.77 1013.19 1013.65 1014.27
999.71 1000.05 1000.47 1000.59 1000.77 1001.43 1002.20 1002.90 1003.17 1003.50 1003.80 1004.35 1004.95 1005.84 1006.14 1006.05 1006.52 1006.69 1006.93 1006.94 1007.21 1007.49 1007.08 1007.75 1008.45 1009.73 1010.07 1010.27 1010.62 1010.69 1010.58 1010.24 1010.35 1011.28 1011.50 1011.56 1011.87 1012.06 1012.26 1012.57 1012.96 1013.40 1014.00
999.00 999.13 999.37 999.41 999.79 1000.42 1001.13 1001.85 1002.31 1002.18 1003.07 1004.01 1004.63 1005.24 1005.80 1005.72 1006.52 1006.79 1006.90 1007.06 1007.18 1007.44 1007.31 1007.60 1008.76 1009.63 1009.83 1010.19 1010.49 1010.73 1010.77 1010.49 1010.34 1011.11 1011.54 1011.70 1011.89 1012.12 1012.32 1012.60 1013.01 1013.37 1014.00
997.91 998.17 998.19 998.31 998.66 999.16 1000.20 1001.17 1001.15 1001.59 1002.79 1003.52 1004.12 1004.68 1005.03 1005.62 1006.19 1006.40 1006.93 1006.87 1007.24 1007.65 1007.69 1007.60 1008.40 1009.27 1009.52 1009.96 1010.50 1010.86 1010.91 1010.83 1010.69 1011.37 1011.69 1011.95 1012.07 1012.33 1012.48 1012.80 1013.27 1013.54 1014.15
996.65 996.88 997.19 997.34 997.65 998.34 999.49 1000.15 1000.51 1001.75 1002.50 1003.04 1003.84 1004.28 1004.52 1005.40 1005.80 1006.40 1006.86 1007.00 1007.13 1007.34 1007.50 1007.71 1008.23 1009.00 1009.45 1010.03 1010.17 1010.69 1011.10 1011.08 1011.09 1011.23 1011.67 1011.60 1012.25 1012.55 1012.74 1012.84 1013.39 1013.79 1014.18
995.86 995.93 996.24 996.50 997.04 997.81 998.59 999.29 1000.52 1001.53 1002.15 1003.01 1003.79 1003.99 1004.53 1005.08 1005.72 1006.20 1006.40 1006.73 1007.10 1007.48 1007.45 1007.51 1008.08 1008.56 1009.19 1009.92 1009.90 1010.34 1010.99 1011.08 1011.36 1011.57 1011.67 1011.95 1012.12 1012.56 1013.04 1013.37 1013.63 1014.04 1014.65
995.20 995.23 995.51 995.86 996.58 997.26 998.73 999.61 1000.44 1001.20 1002.06 1002.94 1003.29 1003.97 1004.34 1005.43 1005.97 1006.59 1006.82 1007.10 1007.21 1007.46 1007.53 1007.34 1007.76 1007.98 1008.81 1009.61 1009.69 1009.99 1010.31 1010.86 1011.17 1011.69 1011.81 1012.06 1012.21 1012.56 1012.84 1013.08 1013.68 1014.26 1014.73
994.34 994.56 994.95 995.44 996.51 997.65 999.16 1000.06 1000.65 1001.26 1001.90 1002.51 1003.06 1003.64 1004.06 1004.95 1005.81 1006.32 1007.09 1007.37 1007.57 1007.69 1008.06 1007.93 1007.72 1007.90 1008.57 1008.92 1009.63 1009.90 1010.04 1010.34 1010.59 1011.76 1011.90 1012.37 1012.64 1012.85 1012.99 1013.31 1013.82 1014.42 1014.92
993.79 994.11 994.49 995.24 996.56 997.94 999.56 1000.23 1001.02 1001.43 1001.89 1002.28 1002.70 1003.30 1003.89 1004.43 1005.47 1005.79 1006.12 1006.72 1006.93 1007.31 1007.93 1007.97 1008.16 1008.43 1008.61 1008.73 1009.48 1009.80 1010.21 1010.65 1011.00 1011.76 1011.81 1012.22 1012.85 1013.21 1013.42 1013.70 1014.08 1014.32 1014.84
993.45 993.90 994.35 995.12 996.59 998.42 999.91 1000.52 1000.77 1001.25 1001.67 1002.05 1002.58 1003.21 1003.92 1004.47 1005.32 1006.00 1005.97 1006.37 1006.57 1007.37 1008.17 1008.49 1008.87 1008.86 1008.86 1009.18 1009.50 1010.03 1010.48 1010.67 1010.98 1011.58 1011.93 1012.05 1012.74 1013.21 1013.52 1013.86 1014.17 1014.61 1014.99
993.21 993.61 994.27 995.18 996.45 998.22 1000.22 1000.19 1000.36 1000.76 1001.42 1001.89 1002.57 1003.40 1004.52 1004.66 1005.62 1006.16 1006.16 1006.46 1006.93 1007.47 1008.20 1008.56 1009.05 1009.49 1009.68 1009.94 1009.83 1009.95 1010.44 1010.47 1010.91 1011.28 1011.35 1011.58 1012.11 1012.88 1013.33 1013.70 1014.03 1014.31 1014.90
Wind_Speed
9 8 6 6 6 6 6 6 7 6 8 10 10 11 11 10 10 7 6 13 9 11 11 10 12 11 10 9 9 8 10 12 13 13 12 13 13 13 14 15 16 16 16
8 8 7 7 6 6 6 5 5 6 8 9 10 11 11 10 10 10 8 7 13 11 13 12 13 11 11 11 9 9 10 13 14 14 14 15 14 13 15 14 13 14 15
9 8 7 6 6 5 6 7 7 7 8 9 11 9 10 10 10 10 9 8 8 15 14 14 14 13 11 12 12 10 10 12 14 14 14 15 14 14 15 15 14 14 14
12 10 8 8 7 7 7 8 8 6 6 9 9 8 8 8 9 9 8 8 7 7 14 14 14 11 13 13 14 13 11 11 13 14 14 13 13 15 15 14 9 12 13
15 12 10 9 9 6 8 9 6 4 7 8 9 9 8 8 9 8 8 9 8 7 7 14 8 9 12 12 14 14 12 13 12 14 14 13 12 14 14 14 13 12 10
17 14 11 10 11 9 9 5 4 6 7 8 8 9 8 8 9 8 9 9 8 9 9 7 7 10 12 9 12 14 15 11 13 15 15 14 13 13 13 13 13 17 18
17 15 12 12 13 13 13 14 13 10 8 7 8 9 9 11 11 9 8 8 9 9 10 5 7 6 8 13 11 14 16 14 13 15 15 14 14 13 13 13 15 16 16
17 16 14 13 14 10 10 10 7 8 7 8 8 8 8 9 10 10 9 8 9 8 8 9 9 6 7 6 6 13 14 15 14 13 15 15 15 14 13 13 15 16 15
18 19 17 13 12 10 10 10 10 12 10 9 14 8 6 7 1 6 8 8 6 8 7 6 7 7 7 7 5 9 11 12 15 14 14 16 16 15 13 13 14 15 15
20 18 16 16 13 13 9 9 9 11 11 11 9 11 12 8 5 5 5 6 6 7 6 6 6 7 7 6 7 3 7 11 14 12 10 16 17 17 14 13 13 14 14
18 18 17 15 14 12 10 10 12 14 11 12 10 9 11 9 8 9 6 7 7 8 6 7 5 5 6 6 6 6 11 8 9 9 9 14 16 15 15 14 15 14 15
12 17 18 14 13 12 12 12 13 13 13 12 10 10 9 9 8 8 8 9 8 5 5 5 6 6 4 5 4 8 6 8 8 7 9 9 14 16 15 15 15 15 16
11 13 16 14 13 11 11 12 12 12 15 14 13 10 9 8 8 7 7 8 5 5 5 5 5 4 3 4 2 4 9 6 6 7 7 8 9 12 12 12 14 15 16
12 11 13 14 17 14 13 12 10 12 14 14 15 12 9 9 7 8 9 7 6 7 5 6 4 4 4 4 8 4 7 9 7 7 8 9 8 11 11 11 13 13 15
11 12 16 16 16 15 15 13 11 14 13 13 12 12 10 7 8 7 8 7 8 8 8 8 5 3 2 3 3 7 7 13 8 7 7 9 9 11 12 12 12 12 15
13 11 15 14 15 14 13 13 14 14 14 10 9 12 10 9 7 7 6 7 7 8 8 4 4 4 1 4 5 6 3 3 7 6 8 9 10 11 11 11 13 14 14
15 16 17 18 18 18 17 16 15 15 14 12 11 13 13 10 8 7 7 7 7 7 7 6 2 5 4 4 2 2 3 5 6 6 9 10 9 10 10 11 13 16 18
17 19 18 18 18 18 17 18 17 14 14 14 14 13 12 9 10 8 7 7 7 6 7 4 6 4 4 7 6 4 1 2 4 8 5 7 7 8 9 10 12 15 15
19 19 18 19 19 18 18 18 15 13 14 15 15 14 13 11 11 9 9 7 8 7 7 7 5 4 3 4 4 3 2 3 3 7 6 7 8 9 10 10 11 15 15
18 19 20 20 19 18 17 16 14 14 15 14 14 13 12 12 11 10 9 9 7 6 6 6 4 5 5 4 4 4 2 0 3 3 5 3 6 7 9 12 14 15 15
19 21 20 19 17 16 13 16 15 15 15 14 13 11 10 10 7 9 9 10 7 8 8 7 6 5 5 4 7 5 4 3 2 1 4 5 5 5 5 10 12 16 14
20 19 19 18 17 12 15 12 15 14 15 15 12 9 10 8 7 4 4 6 3 8 7 7 5 8 8 7 5 6 7 5 4 1 1 3 3 4 5 7 11 12 13
17 17 17 18 18 14 18 15 12 14 14 14 12 11 10 9 10 11 5 2 4 3 4 7 8 8 6 9 7 7 7 7 3 3 3 2 2 3 1 4 12 13 13
17 16 17 18 17 13 18 17 14 14 12 11 12 12 12 12 12 10 10 11 10 8 7 7 6 2 4 9 9 6 5 4 6 4 3 3 2 2 2 2 7 11 11
15 15 17 18 16 14 18 19 16 14 11 12 11 11 12 11 10 6 9 9 8 5 7 8 7 5 8 9 8 6 5 7 5 3 3 3 2 2 1 3 3 7 9
15 13 16 16 16 18 15 18 12 10 12 10 10 10 9 4 12 10 9 6 8 7 7 5 3 3 5 8 9 8 8 5 3 4 5 5 7 4 2 1 4 4 4
Wind_Direction
209 206 212 221 221 220 223 236 250 261 253 253 255 252 256 254 258 261 265 160 200 237 242 241 241 228 214 205 204 201 212 211 214 214 211 212 217 211 205 210 203 203 202
206 207 204 211 229 233 243 236 250 265 242 250 240 249 255 254 244 250 247 214 190 220 239 238 252 245 216 204 205 201 211 212 210 214 216 216 222 214 215 217 210 216 205
211 223 211 212 222 229 247 239 227 234 261 266 258 255 249 243 246 242 249 250 209 200 219 231 239 249 218 206 202 209 218 211 212 211 218 219 225 207 212 222 218 224 195
216 199 207 210 207 210 225 234 224 215 248 246 259 258 242 248 236 238 245 245 229 255 192 213 226 232 218 207 209 217 210 210 216 210 214 216 218 203 207 218 203 218 197
202 210 206 205 201 223 226 231 237 221 244 251 264 253 250 250 240 231 240 229 237 255 250 166 190 226 221 214 218 223 217 212 215 209 211 212 209 204 205 215 210 195 214
203 199 208 200 204 195 201 240 231 228 236 262 267 255 255 247 240 235 231 233 231 230 236 244 226 203 200 210 226 228 224 224 215 212 207 206 209 209 206 211 203 189 206
208 199 206 200 205 206 205 186 185 194 227 232 262 248 248 238 248 245 229 237 234 224 247 239 245 252 190 189 214 235 224 225 218 213 206 201 208 212 207 202 198 201 207
206 207 210 206 209 212 191 192 187 223 213 220 235 242 262 212 218 224 246 234 245 249 226 229 259 256 261 254 205 209 217 222 224 216 206 199 205 210 205 199 197 195 195
204 212 204 209 206 224 187 200 200 213 221 215 218 234 231 239 191 155 220 242 230 241 249 238 251 244 231 254 187 197 211 218 224 218 210 199 202 208 204 200 200 200 197
213 213 203 204 208 214 205 194 203 217 221 228 206 231 257 284 223 205 197 203 227 239 228 243 217 230 241 233 217 269 190 207 216 225 214 203 203 209 203 198 200 203 202
219 218 208 208 207 219 203 210 199 208 209 236 208 203 222 225 238 265 240 198 201 230 227 212 254 241 206 248 236 225 184 210 212 215 211 204 206 207 204 198 198 201 202
211 216 212 212 213 215 212 205 209 203 220 219 227 225 212 217 223 234 239 253 259 161 211 230 212 228 230 225 220 99 171 207 218 206 204 207 202 202 201 197 198 201 199
223 211 204 206 210 213 216 207 205 211 215 220 216 207 216 227 250 248 253 253 252 222 205 219 229 217 213 233 197 208 175 201 201 200 199 209 195 191 193 191 196 199 192
237 232 204 209 207 204 209 202 206 213 211 215 207 219 211 222 216 217 238 249 232 245 201 260 164 221 207 227 77 162 200 189 191 198 201 208 195 184 188 187 196 185 177
241 220 216 209 204 198 198 192 208 205 204 205 199 201 220 205 219 231 244 254 259 254 222 148 230 140 261 208 156 224 224 162 175 198 204 199 185 180 189 192 188 174 168
232 226 213 206 199 189 192 188 205 201 195 188 198 196 205 204 211 226 232 237 247 268 273 122 186 86 146 247 93 259 265 191 165 197 205 196 188 186 191 191 183 171 165
221 214 205 198 190 189 191 192 200 186 186 187 193 193 196 196 216 211 218 230 233 239 249 121 106 161 198 192 190 230 247 249 165 187 209 193 186 185 186 183 177 160 155
222 215 210 196 190 188 188 194 193 175 188 189 187 188 194 186 215 225 218 229 228 219 254 201 115 188 205 168 184 160 141 230 248 156 197 179 159 149 160 172 165 149 157
224 215 209 197 194 188 187 196 184 179 196 190 187 186 189 193 199 213 226 205 216 221 212 251 150 186 169 185 126 108 152 91 88 99 122 126 129 148 155 152 163 150 149
221 212 206 198 192 186 186 184 178 188 190 185 184 186 188 196 203 208 212 217 224 219 221 235 168 176 168 200 176 164 136 103 107 105 62 103 152 146 153 141 150 148 147
218 207 194 192 185 181 180 179 180 187 180 178 183 181 187 197 192 206 214 207 201 214 219 221 188 190 174 188 192 175 147 138 110 93 131 147 149 155 151 151 156 156 159
207 196 189 181 175 180 144 159 174 179 177 176 167 175 174 147 148 171 259 346 260 228 235 237 200 208 183 195 200 175 165 161 166 120 110 105 139 128 147 164 153 150 160
195 190 181 173 171 171 139 142 153 172 176 173 168 179 187 184 187 194 178 246 256 320 6 270 243 222 186 182 179 191 175 183 161 135 141 89 28 104 108 124 156 160 164
186 182 173 168 166 148 140 143 163 163 165 170 179 185 195 178 197 200 195 205 217 200 213 227 238 254 232 174 176 177 173 131 98 127 194 134 119 96 116 115 158 163 168
181 177 169 164 163 141 147 158 166 164 166 177 181 184 189 190 158 184 208 207 213 154 79 58 48 16 117 152 150 143 146 165 152 156 207 111 132 108 97 146 154 159 164
171 161 162 161 151 152 161 157 165 171 167 170 173 160 66 217 147 167 214 188 203 170 169 146 152 107 151 168 172 188 163 160 119 153 199 174 162 149 142 135 149 162 182